Whiteman AFB, MO

4:30 PM CST on November 11, 2019 (GMT -0600)
Whiteman Air Force Base

Weather History for KSZL - May, 2019

Change the Weather History Date:

Monday, May 13, 2019

  Actual Average Record
Temperature  
Mean Temperature 53 °F -  
Max Temperature 66 °F 73 °F 89 °F (2018)
Min Temperature 40 °F 53 °F 39 °F (1997)
Degree Days  
Heating Degree Days 12    
Growing Degree Days 3 (Base 50)    
Moisture  
Dew Point 46 °F    
Average Humidity 83    
Maximum Humidity 100    
Minimum Humidity 52    
Precipitation  
Precipitation 0.00 in - - ()
Sea Level Pressure  
Sea Level Pressure 29.95 in    
Wind  
Wind Speed 2 mph (East)    
Max Wind Speed 5 mph    
Max Gust Speed -    
Visibility 7 miles    
Events Fog    
Averages and records for this station are not official NWS values.
T = Trace of Precipitation, MM = Missing Value Source: NWS Daily Summary

Daily Weather History Graph

Daily Weather History Graph

Search for Another Location

Airport or City:

Astronomy

May. 13, 2019 Rise Set
Actual Time 6:04 AM CDT 8:17 PM CDT
Civil Twilight 5:34 AM CDT 8:47 PM CDT
Nautical Twilight 4:57 AM CDT 9:23 PM CDT
Astronomical Twilight 4:18 AM CDT 10:04 PM CDT
Moon 2:34 PM CDT (5/13) 3:17 AM CDT (5/13)
Length of Visible Light 15h 13m
Length of Day
14h 13m
Waxing Gibbous, 69% of the Moon is Illuminated
May 13
Waxing Gibbous
May 18
Full
May 26
Last Quarter
Jun 3
New
Jun 10
First Quarter

Hourly Weather History & Observations

Time (CDT) Temp. Windchill Dew Point Humidity Pressure Visibility Wind Dir Wind Speed Gust Speed Precip Events Conditions
12:56 AM 44.4 °F 42.9 °F 44.4 °F 100% 29.91 in 10.0 mi North 3.5 mph - N/A   Scattered Clouds
1:56 AM 44.4 °F - 44.4 °F 100% 29.91 in 10.0 mi Calm Calm - N/A   Partly Cloudy
2:56 AM 46.0 °F - 46.0 °F 100% 29.91 in 10.0 mi Calm Calm - N/A   Clear
3:37 AM 42.8 °F - 42.8 °F 100% 29.91 in 3.0 mi Calm Calm - N/A   Clear
3:57 AM 43.3 °F - 43.3 °F 100% 29.91 in 1.5 mi Calm Calm - N/A   Clear
4:56 AM 40.5 °F - 40.5 °F 100% 29.92 in 1.0 mi Calm Calm - N/A   Clear
5:41 AM 41.0 °F - 41.0 °F 100% 29.95 in 0.6 mi Calm Calm - N/A Fog Fog
5:58 AM 41.4 °F - 41.4 °F 100% 29.96 in 0.5 mi Calm Calm - N/A Fog Fog
6:57 AM 40.8 °F 38.8 °F 40.8 °F 100% 29.98 in 0.8 mi NNE 3.5 mph - N/A   Partly Cloudy
7:12 AM 42.8 °F - 42.8 °F 100% 29.99 in 1.5 mi Calm Calm - N/A   Partly Cloudy
7:26 AM 46.4 °F - 46.4 °F 100% 29.98 in 2.0 mi Calm Calm - N/A   Clear
7:56 AM 47.7 °F - 47.7 °F 100% 29.99 in 6.0 mi NE 3.5 mph - N/A   Partly Cloudy
8:56 AM 50.5 °F - 50.5 °F 100% 30.01 in 10.0 mi East 3.5 mph - N/A   Partly Cloudy
9:56 AM 54.9 °F - 52.9 °F 93% 30.00 in 10.0 mi Calm Calm - N/A   Scattered Clouds
10:56 AM 57.7 °F - 49.8 °F 75% 30.00 in 10.0 mi East 4.6 mph - N/A   Scattered Clouds
11:56 AM 58.6 °F - 46.9 °F 65% 29.99 in 10.0 mi South 4.6 mph - N/A   Scattered Clouds
12:56 PM 60.6 °F - 48.0 °F 63% 29.98 in 10.0 mi South 4.6 mph - N/A   Partly Cloudy
2:56 PM 63.9 °F - 48.4 °F 57% 29.95 in 10.0 mi ESE 4.6 mph - N/A   Partly Cloudy
3:56 PM 65.1 °F - 49.5 °F 57% 29.94 in 10.0 mi SE 4.6 mph - N/A   Partly Cloudy
4:56 PM 64.2 °F - 47.3 °F 54% 29.93 in 10.0 mi Calm Calm - N/A   Partly Cloudy
6:51 PM 66.2 °F - 48.2 °F 52% 29.92 in 10.0 mi East 3.5 mph - N/A   Partly Cloudy
7:56 PM 62.6 °F - 48.2 °F 59% 29.92 in 10.0 mi East 3.5 mph - N/A   Partly Cloudy
8:56 PM 62.6 °F - 48.2 °F 59% 29.92 in 10.0 mi East 3.5 mph - N/A   Clear
9:56 PM 57.0 °F - 50.5 °F 79% 29.92 in 10.0 mi East 3.5 mph - N/A   Clear
10:56 PM 64.4 °F - 50.0 °F 59% 29.92 in 10.0 mi East 4.6 mph - N/A   Clear